Location: Caltech
(34.1382°N, 118.1253°W)
Time: 20:34:51
(UTC-07:00)

Cosmos 44 Rocket - Visible Passes

Search period start: 22 August 2014 00:00
Search period end: 01 September 2014 00:00
Orbit: 653 x 740 km, 65.1° (Epoch: 21 August)

Date Brightness Start Highest point End Pass type
(mag) Time Alt. Az. Time Alt. Az. Time Alt. Az.
26 Aug 6.2 05:37:40 10° SE 05:40:25 15° ESE 05:43:08 10° ENE visible
28 Aug 5.9 05:19:41 10° SSE 05:23:22 20° ESE 05:27:01 10° ENE visible
30 Aug 5.3 05:02:04 10° SSE 05:06:21 28° ESE 05:10:34 10° NE visible
31 Aug 3.4 05:43:20 10° SSW 05:48:26 80° WNW 05:53:27 10° NNE visible
